Location: Im Fang
(46.6019°N, 7.2397°E)
Time: 05:03:55
(UTC+00:00)

CZ-4C R/B - Pass Details

Date: 08 December 2019
Orbit: 646 x 1356 km, 63.4° (Epoch: 23 January)

Event Time Altitude Azimuth Distance (km) Brightness Sun altitude
Exits shadow 06:12:13 10° 292° (WNW) 3,163 4.5 -8.3°
Reaches altitude 10° 06:12:21 10° 292° (WNW) 3,136 4.4 -8.3°
Maximum altitude 06:17:10 18° 252° (WSW) 2,680 4.4 -7.5°
Drops below altitude 10° 06:22:16 10° 214° (SSW) 3,350 5.2 -6.7°
Sets 06:26:17 0° 197° (SSW) 4,359 6.0 -6.1°
